Location: Omaha
(41.2590°N, 95.9380°W)
Time: 04:08:09
(UTC-06:00)

Tiangong 2 - Pass Details

Date: 14 October 2017
Orbit: 386 x 390 km, 42.8° (Epoch: 13 December)

Event Time Altitude Azimuth Distance (km) Brightness Sun altitude
Exits shadow 07:04:51 - 283° (WNW) 1,554 3.5 -6.4°
Reaches altitude 10° 07:05:10 10° 283° (WNW) 1,423 3.3 -6.3°
Maximum altitude 07:08:23 75° 9° (N) 409 1.2 -5.7°
Drops below altitude 10° 07:11:35 10° 96° (E) 1,423 5.9 -5.1°
Sets 07:13:40 0° 98° (E) 2,279 8.2 -4.7°
